Regional Weather Roundup
Issued by NWS Upton, NY

Current Version | Previous Version | Graphics & Text | Print | Product List | Glossary Off
Versions: 1 2 3 4 5 6 7 8 9 10 11 12 13 14 15 16 17 18 19 20 21 22 23 24 25 26

000
ASUS41 KOKX 262209
RWROKX

REGIONAL WEATHER ROUNDUP
NATIONAL WEATHER SERVICE NEW YORK NY
600 PM EDT WED JUL 26 2017

NOTE: "FAIR" INDICATES FEW OR NO CLOUDS BELOW 12,000 FEET WITH NO
SIGNIFICANT WEATHER AND/OR OBSTRUCTIONS TO VISIBILITY.

NYZ071-072-176-178-NJZ106-104-262300-
NEW YORK CITY METRO AREA

CITY           SKY/WX    TMP DP  RH WIND       PRES   REMARKS
Central Park   SUNNY     73  54  51 VRB5      30.19F
Bronx Bot Gard   N/A     72  54  53 E5        30.18F
LaGuardia APRT PTSUNNY   75  56  51 S9        30.16F
Kennedy INTL   MOSUNNY   73  57  57 S9        30.18F
Breezy Point     N/A     70 N/A N/A S9          N/A
Newark/Liberty PTSUNNY   75  52  44 SE9       30.15F
Teterboro      CLOUDY    75  55  49 S8        30.14F
$$

NYZ177-179-078>081-262300-
LONG ISLAND NEW YORK

CITY           SKY/WX    TMP DP  RH WIND       PRES   REMARKS
Jones Beach      N/A     70 N/A N/A S7          N/A
Matinecock PT    N/A     73 N/A N/A S5          N/A
Farmingdale    MOSUNNY   71  55  56 S9        30.17F
MacArthur/ISP  MOSUNNY   73  56  54 S9        30.16F
Shirley        SUNNY     73  57  57 S8        30.17F
Mt Sinai Harb    N/A    N/A N/A N/A E2          N/A
Westhampton    SUNNY     71  56  58 S7        30.19S
East Hampton   FAIR      70  58  65 S7        30.16F
Montauk          N/A     72  61  68 S6        30.17F
$$

NYZ052-065-067-262300-
HUDSON VALLEY

CITY           SKY/WX    TMP DP  RH WIND       PRES   REMARKS
White Plains   PTSUNNY   72  57  59 S8        30.16F
Larchmont Harb   N/A     73 N/A N/A SE12        N/A
Croton O-T Hud   N/A     75 N/A N/A S3          N/A
Newburgh       PTSUNNY   73  63  68 W12       30.16F
Montgomery     CLOUDY    75  60  59 S7        30.13F
Poughkeepsie   PTSUNNY   76  58  53 SW6       30.13F
Albany         PTSUNNY   75  57  53 S10       30.10F
$$

NJZ001-105-106-008-010-013-015-019>022-104-262300-
NEW JERSEY

CITY           SKY/WX    TMP DP  RH WIND       PRES   REMARKS
Newark/Liberty PTSUNNY   75  52  44 SE9       30.15F
Teterboro      CLOUDY    75  55  49 S8        30.14F
Caldwell       CLOUDY    75  54  47 S9        30.15F
Somerville     SUNNY     77  61  57 SE3       30.13F
Linden         FAIR      76  48  36 SE9       30.16F
Perth Amboy      N/A     72 N/A N/A E9          N/A
Sussex         MOSUNNY   74  62  66 CALM      30.14F
Andover          N/A     74  61  63 CALM      30.15F
Trenton        SUNNY     76  62  62 E9        30.14F
Millville      MOSUNNY   74  64  71 SE8       30.14F
Atlantic City  PTSUNNY   72  61  68 E10G21    30.16F
Wrightstown    MOSUNNY   73  61  65 SE6       30.12F
Toms River     SUNNY     73  61  65 SE7       30.17F
Belmar         MOSUNNY   71  59  65 E7        30.18F
$$

PAZ047>061-062-071-262300-
EASTERN PENNSYLVANIA

CITY           SKY/WX    TMP DP  RH WIND       PRES   REMARKS
Philadelphia   PTSUNNY   78  63  59 SE12      30.14F
Allentown      PTSUNNY   77  61  57 S6        30.13F
Scranton       MOSUNNY   75  61  61 S6        30.13F
$$

CTZ002-004>006-009-010-012-RIZ004-006-007-MAZ004-011-015-262300-
SOUTHERN NEW ENGLAND
 IN CT

CITY           SKY/WX    TMP DP  RH WIND       PRES   REMARKS
Bradley INTL   PTSUNNY   77  56  48 SW8       30.13F
Hartford       SUNNY     78  57  48 SW7       30.13F
Danbury        PTSUNNY   76  56  49 S6        30.17F
Wtrbury/Oxford MOSUNNY   73  54  49 SW6       30.18F
Bridgeport     SUNNY     75  58  55 S6        30.16F
Meriden        SUNNY     75  54  47 S9        30.15F
New Haven      SUNNY     75  58  55 S7        30.16F
Chester        FAIR      73  55  53 SW7       30.17R
Groton         SUNNY     71  59  65 S8        30.15F
Wilimantic     CLOUDY    79  60  52 SW10      30.14F

 IN RI

CITY           SKY/WX    TMP DP  RH WIND       PRES   REMARKS
Providence     MOSUNNY   75  63  66 S10       30.14F
Block Island   SUNNY     71  61  70 SW10      30.17S
Westerly       SUNNY     73  58  59 SW9       30.16F
 IN MA

CITY           SKY/WX    TMP DP  RH WIND       PRES   REMARKS
Boston         MOSUNNY   72  57  59 E14       30.12F
Worcester      PTSUNNY   74  52  46 S7        30.16F
Westfield      PTSUNNY   77  57  50 S8        30.13F
Provincetown   SUNNY     74  55  51 S8        30.15F
Nantucket      SUNNY     66  59  78 S6        30.17S
$$

ANZ330-335-338-340-345-350-353-355-262300-
COASTAL MARINE OBSERVATIONS


STATION/POSITION TIME  SKY/WX   TEMP    WIND        PRES    VSBY  WAVE
                                AIR SEA DIR/SP/G                  HT/PER
                 (UTC)          (F)     (DEG/KT/KT) (MB)    (MI)  (FT/S)
NY HARB ENTRANCE 2050            70 74  160/  4/  8 1021.7          2/ 5
20 S FIRE ISLAND 2150            68 75  150/  4/  6 1021.7          2/ 7
GREAT SOUTH BAY  2130            70 77  160/  8/ 10   N/A
23 SSW MONTAUK P 2050            69 75              1022.4          2/10
15 E BARNEGAT LI 2130               73                N/A           3/ 5
HUDSON CANYON    2050            67 72   50/  6/  8 1021.6          2/ 5
KINGS POINT      2148            73 73  200/ 10/ 12 1021.2
EXECUTION ROCKS  2145            74     180/  8/ 12   N/A
CENTRAL LI SOUND NOT AVBL
EASTERN LI SOUND NOT AVBL
ROBBINS REEF     2148                   160/ 13/ 16 1021.9
$$


>>>>>>>>>>>>>>>>>>>>>>>>>>>> KEY <<<<<<<<<<<<<<<<<<<<<<<<<<<
>                                                          <
>     SKY/WX - Sky Condition/Present Weather               <
>     TMP    - Temperature in Fahrenheit                   <
>     DP     - Dew Point in Fahrenheit                     <
>     RH     - Relative Humidity in Percent                <
>     WIND   - Direction (from) and Speed in MPH           <
>     PRES   - Mean Sea Level Pressure (inches of Hg)      <
>     WCI    - Wind Chill Index                            <
>     VSB    - VISIBILITY IN MILES                         <
>     HX     - HEAT INDEX                                  <
>     TC     - TEMPERATURE IN CELSIUS                      <
>     VRB    - VARIABLE WIND DIRECTION                     <
>                                                          <
>>>>>>>>>>>>>>>>>>>>>>>>>>>> KEY <<<<<<<<<<<<<<<<<<<<<<<<<<<




USA.gov is the U.S. government's official web portal to all federal, state and local government web resources and services.